User: anonymous   Login
Location: Unspecified
(0.0000°N, 0.0000°E)
Time: 08:15:37
(UTC+01:00)
Language:

Iridium 4 Rocket - Orbit

View from above orbital plane
View from above orbital plane
View from above satellite
View from above satellite

Ground track
Ground track

The orbit data is extracted from the following two-line orbital elements,

1 24797U 97020F   18051.70093988 +.00000094 +00000-0 +14974-4 0  9998
2 24797 086.8921 262.3252 0224190 208.2959 194.9478 14.44037614093772
Epoch (UTC): 20 February 2018 16:49:21
Eccentricity: 0.0224190
inclination: 86.8921°
perigee height: 585 km
apogee height: 905 km
right ascension of ascending node: 262.3252°
argument of perigee: 208.2959°
revolutions per day: 14.44037614
mean anomaly at epoch: 194.9478°
orbit number at epoch: 9377

The dashed part of the orbit path shows where the satellite is in the earth's shadow,  

DLR